Location: Killam
(52.7910°N, 111.8608°W)
Time: 12:05:01
(UTC+00:00)

ISS - Pass Details

Date: 26 January 2026
Orbit: 413 x 428 km, 51.6° (Epoch: 18 February)

Event Time Altitude Azimuth Distance (km) Brightness Sun altitude
Rises 01:27:50 0° 279° (W) 2,364 1.4 -13.1°
Reaches altitude 10° 01:29:58 10° 274° (W) 1,502 0.3 -13.4°
Maximum altitude 01:33:13 47° 199° (SSW) 570 -2.9 -13.8°
Enters shadow 01:35:42 16° 129° (SE) 1,206 -1.8 -14.2°
